Location: Eaton
(41.3139°N, 82.0207°W)
Time: 08:30:24
(UTC+00:00)

USA 32 - Pass Details

Date: 17 June 2021
Orbit: 777 x 783 km, 85.0° (Epoch: 15 July)

Event Time Altitude Azimuth Distance (km) Brightness Sun altitude
Rises 05:58:16 0° 350° (N) 3,273 8.5 -24.9°
Reaches altitude 10° 06:00:40 10° 346° (NNW) 2,340 7.4 -24.9°
Maximum altitude 06:05:46 55° 270° (W) 932 4.3 -24.7°
Enters shadow 06:06:10 54° 252° (WSW) 947 4.2 -24.7°
